TimeEDT,TemperatureF,Dew PointF,Humidity,Sea Level PressureIn,VisibilityMPH,Wind Direction,Wind SpeedMPH,Gust SpeedMPH,PrecipitationIn,Events,Conditions,WindDirDegrees,DateUTC
12:15 AM,64.4,55.4,73,30.04,10.0,SW,3.5,-,N/A,,Clear,230,2013-04-25 04:15:00
12:35 AM,63.5,55.4,75,30.04,10.0,WSW,3.5,-,N/A,,Clear,240,2013-04-25 04:35:00
12:55 AM,62.8,55.4,77,30.05,10.0,WSW,3.5,-,N/A,,Clear,240,2013-04-25 04:55:00
1:15 AM,61.9,55.6,80,30.05,10.0,Calm,Calm,-,N/A,,Clear,0,2013-04-25 05:15:00
1:35 AM,61.7,55.9,81,30.06,10.0,Calm,Calm,-,N/A,,Scattered Clouds,0,2013-04-25 05:35:00
1:55 AM,62.2,56.3,81,30.06,10.0,West,4.6,-,N/A,,Mostly Cloudy,260,2013-04-25 05:55:00
2:15 AM,61.9,54.3,76,30.06,10.0,NNW,3.5,-,N/A,,Mostly Cloudy,340,2013-04-25 06:15:00
2:35 AM,60.3,50.2,69,30.07,10.0,Calm,Calm,-,N/A,,Mostly Cloudy,0,2013-04-25 06:35:00
2:55 AM,59.2,48.7,68,30.07,10.0,NNW,3.5,-,N/A,,Mostly Cloudy,330,2013-04-25 06:55:00
3:15 AM,58.1,47.1,67,30.08,10.0,North,6.9,-,N/A,,Mostly Cloudy,350,2013-04-25 07:15:00
3:35 AM,57.2,45.7,65,30.10,10.0,North,6.9,-,N/A,,Mostly Cloudy,350,2013-04-25 07:35:00
3:55 AM,56.3,45.0,66,30.11,10.0,Calm,Calm,-,N/A,,Overcast,0,2013-04-25 07:55:00
4:15 AM,55.9,45.0,67,30.11,10.0,North,3.5,-,N/A,,Overcast,350,2013-04-25 08:15:00
4:35 AM,55.0,44.1,67,30.12,10.0,North,8.1,-,N/A,,Mostly Cloudy,10,2013-04-25 08:35:00
4:55 AM,53.4,41.9,65,30.14,10.0,NNW,9.2,21.9,N/A,,Overcast,340,2013-04-25 08:55:00
5:15 AM,52.5,39.7,62,30.15,10.0,NNW,6.9,-,N/A,,Overcast,340,2013-04-25 09:15:00
5:35 AM,51.6,38.8,62,30.16,10.0,NNW,3.5,-,N/A,,Mostly Cloudy,340,2013-04-25 09:35:00
5:55 AM,50.2,38.7,65,30.17,10.0,North,4.6,-,N/A,,Clear,350,2013-04-25 09:55:00
6:15 AM,49.5,37.0,62,30.19,10.0,North,6.9,-,N/A,,Mostly Cloudy,360,2013-04-25 10:15:00
6:35 AM,49.1,36.3,61,30.20,10.0,North,4.6,-,N/A,,Mostly Cloudy,360,2013-04-25 10:35:00
6:55 AM,48.7,35.4,60,30.22,10.0,North,3.5,-,N/A,,Scattered Clouds,360,2013-04-25 10:55:00
7:15 AM,48.2,33.8,58,30.23,10.0,North,4.6,-,N/A,,Scattered Clouds,360,2013-04-25 11:15:00
7:35 AM,47.8,34.2,59,30.24,10.0,North,5.8,-,N/A,,Clear,360,2013-04-25 11:35:00
7:55 AM,48.2,34.7,60,30.24,10.0,NNE,4.6,-,N/A,,Scattered Clouds,20,2013-04-25 11:55:00
8:15 AM,48.4,35.4,61,30.25,10.0,NNE,5.8,-,N/A,,Clear,20,2013-04-25 12:15:00
8:35 AM,48.9,35.6,60,30.25,10.0,NNE,4.6,-,N/A,,Clear,20,2013-04-25 12:35:00
8:55 AM,49.5,35.6,59,30.25,10.0,NNE,9.2,-,N/A,,Clear,30,2013-04-25 12:55:00
9:15 AM,50.7,35.2,55,30.25,10.0,NE,5.8,-,N/A,,Clear,40,2013-04-25 13:15:00
9:35 AM,51.8,35.1,53,30.25,10.0,NNE,5.8,16.1,N/A,,Clear,20,2013-04-25 13:35:00
9:55 AM,52.0,34.5,51,30.25,10.0,NE,5.8,-,N/A,,Clear,40,2013-04-25 13:55:00
10:15 AM,53.6,34.2,48,30.25,10.0,NNE,6.9,-,N/A,,Clear,20,2013-04-25 14:15:00
10:35 AM,54.0,33.8,46,30.25,10.0,North,4.6,-,N/A,,Clear,360,2013-04-25 14:35:00
10:55 AM,56.3,35.4,46,30.25,10.0,ENE,4.6,-,N/A,,Clear,60,2013-04-25 14:55:00
11:15 AM,56.5,34.5,44,30.25,10.0,ENE,8.1,-,N/A,,Clear,60,2013-04-25 15:15:00
11:35 AM,57.7,35.1,43,30.26,10.0,NNE,4.6,-,N/A,,Clear,30,2013-04-25 15:35:00
11:55 AM,58.1,35.4,43,30.26,10.0,North,3.5,-,N/A,,Clear,360,2013-04-25 15:55:00
12:15 PM,58.1,35.4,43,30.26,10.0,Calm,Calm,-,N/A,,Clear,0,2013-04-25 16:15:00
12:35 PM,59.4,34.7,40,30.26,10.0,ENE,5.8,-,N/A,,Clear,60,2013-04-25 16:35:00
12:55 PM,60.6,35.2,39,30.25,10.0,West,5.8,-,N/A,,Clear,280,2013-04-25 16:55:00
1:15 PM,61.0,34.5,37,30.25,10.0,NW,4.6,-,N/A,,Clear,320,2013-04-25 17:15:00
1:35 PM,62.8,35.6,36,30.25,10.0,NNW,3.5,-,N/A,,Clear,340,2013-04-25 17:35:00
1:55 PM,63.1,35.2,35,30.24,10.0,North,4.6,-,N/A,,Clear,10,2013-04-25 17:55:00
2:15 PM,65.1,36.1,34,30.24,10.0,West,3.5,-,N/A,,Clear,270,2013-04-25 18:15:00
2:35 PM,64.8,34.5,33,30.24,10.0,NE,5.8,-,N/A,,Clear,40,2013-04-25 18:35:00
2:55 PM,64.8,34.2,32,30.23,10.0,NE,4.6,-,N/A,,Clear,50,2013-04-25 18:55:00
3:15 PM,65.8,35.2,32,30.22,10.0,Calm,Calm,-,N/A,,Clear,0,2013-04-25 19:15:00
3:35 PM,66.6,33.1,29,30.22,10.0,WSW,4.6,-,N/A,,Clear,240,2013-04-25 19:35:00
3:55 PM,67.3,34.0,29,30.21,10.0,Calm,Calm,-,N/A,,Clear,0,2013-04-25 19:55:00
4:15 PM,67.1,33.1,28,30.21,10.0,Calm,Calm,-,N/A,,Clear,0,2013-04-25 20:15:00
4:35 PM,67.5,32.7,28,30.21,10.0,East,3.5,-,N/A,,Clear,80,2013-04-25 20:35:00
4:55 PM,67.6,30.4,25,30.20,10.0,Calm,Calm,-,N/A,,Clear,0,2013-04-25 20:55:00
5:15 PM,67.8,28.9,23,30.20,10.0,NW,3.5,-,N/A,,Clear,310,2013-04-25 21:15:00
5:35 PM,67.5,28.2,23,30.20,10.0,Calm,Calm,-,N/A,,Clear,0,2013-04-25 21:35:00
5:55 PM,68.2,29.3,23,30.20,10.0,Calm,Calm,-,N/A,,Clear,0,2013-04-25 21:55:00
6:15 PM,67.3,29.7,25,30.20,10.0,Calm,Calm,-,N/A,,Clear,0,2013-04-25 22:15:00
6:35 PM,66.4,33.3,29,30.20,10.0,Calm,Calm,-,N/A,,Clear,0,2013-04-25 22:35:00
6:55 PM,64.9,35.1,33,30.20,10.0,Calm,Calm,-,N/A,,Clear,0,2013-04-25 22:55:00
7:15 PM,61.9,34.2,35,30.21,10.0,Calm,Calm,-,N/A,,Clear,0,2013-04-25 23:15:00
7:35 PM,60.1,33.4,37,30.21,10.0,Calm,Calm,-,N/A,,Clear,0,2013-04-25 23:35:00
7:55 PM,58.8,33.8,39,30.21,10.0,Calm,Calm,-,N/A,,Clear,0,2013-04-25 23:55:00
8:15 PM,57.2,32.9,40,30.22,10.0,Calm,Calm,-,N/A,,Clear,0,2013-04-26 00:15:00
8:35 PM,55.8,35.1,46,30.23,10.0,Calm,Calm,-,N/A,,Clear,0,2013-04-26 00:35:00
8:55 PM,53.4,36.7,53,30.24,10.0,Calm,Calm,-,N/A,,Clear,0,2013-04-26 00:55:00
9:15 PM,52.0,36.1,55,30.25,10.0,Calm,Calm,-,N/A,,Clear,0,2013-04-26 01:15:00
9:35 PM,50.4,38.7,64,30.26,10.0,Calm,Calm,-,N/A,,Clear,0,2013-04-26 01:35:00
9:55 PM,50.2,38.1,63,30.26,10.0,Calm,Calm,-,N/A,,Clear,0,2013-04-26 01:55:00
10:15 PM,48.2,39.2,71,30.27,10.0,Calm,Calm,-,N/A,,Clear,0,2013-04-26 02:15:00
10:35 PM,47.1,39.9,76,30.28,10.0,Calm,Calm,-,N/A,,Clear,0,2013-04-26 02:35:00
10:55 PM,46.2,39.9,79,30.28,10.0,Calm,Calm,-,N/A,,Clear,0,2013-04-26 02:55:00
11:15 PM,47.5,40.3,76,30.29,10.0,Calm,Calm,-,N/A,,Clear,0,2013-04-26 03:15:00
11:35 PM,46.9,39.7,76,30.29,10.0,Calm,Calm,-,N/A,,Clear,0,2013-04-26 03:35:00
11:55 PM,45.5,39.2,79,30.29,10.0,Calm,Calm,-,N/A,,Clear,0,2013-04-26 03:55:00